Location: Rayville (historical)
(39.9992°N, 99.6815°W)
Time: 05:31:48
(UTC+00:00)

Daily predictions for brighter satellites

Satellite Brightness Start Highest point End
(mag) Time Altitude Azimuth Time Altitude Azimuth Time Altitude Azimuth
STARLINK-80 4.3 00:37:18 10° WSW 00:40:59 44° NW 00:44:40 10° NE
STARLINK-55 3.8 00:38:06 10° SSW 00:41:07 35° SE 00:44:09 10° ENE
STARLINK-28 3.6 00:39:45 10° SSW 00:42:50 40° SE 00:45:56 10° ENE
STARLINK-34 4.5 00:40:26 10° S 00:43:23 25° SE 00:46:22 10° ENE
SKYMED 2 3.5 00:40:59 10° NNE 00:45:21 78° ESE 00:49:42 10° S
ADEOS Rocket 4.0 00:40:37 10° NNE 00:47:48 40° E 00:54:55 10° SSE
Cosmos 2016 Rocket 4.2 00:43:22 10° SSE 00:49:08 47° E 00:54:57 10° NNE
Cosmos 1633 Rocket 4.4 00:47:07 10° SE 00:50:03 18° E 00:53:01 10° NE
Cosmos 2369 Rocket 3.7 00:49:20 10° SE 00:52:35 16° E 00:55:51 10° ENE
Okean-O 3.1 00:51:34 10° S 00:55:58 68° W 01:00:24 10° NNW
STARLINK-42 3.5 00:53:48 10° SSW 00:56:56 44° SE 00:59:52 12° ENE
FengYun 1-2 T 4.4 00:52:35 10° SSE 00:58:15 82° WSW 01:03:55 10° NNW
Envisat 4.2 00:55:01 10° S 00:59:53 47° W 01:04:48 10° NNW
Cosmos 2082 Rocket 2.2 00:55:47 10° NNW 01:01:27 84° ENE 01:07:07 10° SSE
Lacrosse 4 Rocket 1.4 00:57:41 10° SSW 01:01:46 63° ESE 01:05:59 10° NNE
STARLINK-61 3.4 01:02:40 10° SW 01:06:32 71° SE 01:10:02 13° NE
ATLAS 5 CENTAUR R/B 4.0 01:01:56 10° NW 01:07:33 39° WSW 01:13:47 10° S
STARLINK-64 3.4 01:06:19 10° SSW 01:09:49 53° SE 01:12:30 16° ENE
Cosmos 1782 2.9 01:08:13 10° N 01:12:14 83° W 01:16:14 10° S
Cosmos 2228 Rocket 3.8 01:07:52 10° NNW 01:12:20 60° W 01:16:48 10° S
Cosmos 1992 Rocket 4.2 01:07:53 10° SSW 01:13:06 79° WNW 01:18:22 10° NNE
Cosmos 1862 3.3 01:13:27 10° S 01:17:21 55° E 01:21:16 10° NNE
Cosmos 2173 Rocket 4.4 01:11:29 10° SSW 01:17:48 69° W 01:24:11 10° N
Cosmos 1833 Rocket 4.0 01:13:17 10° NW 01:18:37 44° WSW 01:23:55 10° S
SL-4 R/B 3.1 01:14:53 10° NW 01:19:16 36° NNE 01:21:50 20° E
H-2A R/B 3.1 01:19:06 13° ESE 01:22:46 26° ENE 01:27:07 10° NNE
STARLINK-24 3.7 01:19:03 10° SSW 01:22:58 54° SE 01:25:21 22° ENE
Cosmos 1354 Rocket 4.0 01:22:55 10° NNW 01:28:15 84° ENE 01:33:31 10° SSE
STARLINK-81 3.6 01:26:32 10° SW 01:30:28 58° SE 01:32:28 27° ENE
Cosmos 1470 Rocket 4.4 01:27:23 10° SSE 01:31:02 27° E 01:33:03 19° NE
CSL-04 Rocket 3.8 01:26:10 10° SSE 01:31:44 81° WSW 01:37:17 10° NNW
STARLINK-1023 3.6 01:29:25 10° SSW 01:32:05 32° SE 01:32:10 32° SE
Cosmos 1805 Rocket 4.2 01:27:48 10° SSW 01:32:08 59° W 01:36:28 10° N
STARLINK-54 3.5 01:28:20 10° SW 01:32:19 66° SE 01:34:22 27° ENE
STARLINK-77 3.5 01:29:48 10° SW 01:33:46 62° SE 01:35:38 29° ENE
Cosmos 1633 3.8 01:30:43 10° SSW 01:34:08 43° W 01:37:36 10° N
STARLINK-1007 3.5 01:32:20 10° SSW 01:35:06 35° SE 01:35:11 35° SE
STARLINK-25 3.5 01:31:29 10° SW 01:35:27 65° SE 01:37:15 30° ENE
STARLINK-71 3.4 01:33:17 10° SW 01:37:17 75° SE 01:39:10 30° ENE
Sich 1 3.2 01:33:02 10° SSW 01:37:19 73° W 01:41:37 10° N
Cosmos 1238 Rocket 4.4 01:32:14 10° SSW 01:38:04 67° W 01:44:37 10° N
STARLINK-79 3.5 01:34:45 10° SW 01:38:44 69° SE 01:40:26 32° ENE
CZ-4 R/B 3.1 01:35:58 10° SSW 01:39:52 37° W 01:43:48 10° NNW
ARGOS 3.9 01:37:59 24° ESE 01:39:57 31° ENE 01:44:40 10° N
Cosmos 1862 Rocket 4.1 01:36:23 10° N 01:40:21 35° ENE 01:41:09 32° E
STARLINK-78 3.4 01:36:24 10° SW 01:40:23 72° SE 01:42:03 33° ENE
NOSS 3-1 (C) 3.1 01:35:22 10° SSW 01:40:40 68° ESE 01:46:07 13° NE
STARLINK-1010 3.3 01:38:22 10° SSW 01:41:08 41° SE 01:41:08 41° SE
Meteor 1-10 Rocket 4.2 01:36:27 10° N 01:42:07 88° W 01:47:40 10° S
STARLINK-57 3.4 01:38:08 10° SW 01:42:08 79° SE 01:43:48 34° ENE
STARLINK-1029 4.0 01:39:44 10° SSW 01:42:07 29° SSE 01:42:07 29° SSE
STARLINK-1008 3.2 01:40:24 10° SSW 01:43:12 44° SE 01:43:12 44° SE
Ariane Rocket 3.0 01:38:23 10° SSE 01:43:20 57° ENE 01:48:21 10° N
STARLINK-49 3.4 01:39:42 10° SW 01:43:43 77° SE 01:45:14 36° ENE
Cosmos 1707 Rocket 3.5 01:39:28 10° N 01:43:55 89° SW 01:48:22 10° S
STARLINK-1016 3.2 01:41:24 10° SSW 01:44:10 45° SSE 01:44:10 45° SSE
STARLINK-1025 3.2 01:41:49 10° SSW 01:44:36 46° SSE 01:44:36 46° SSE
STARLINK-27 3.4 01:41:21 10° SW 01:45:22 80° SE 01:46:50 38° ENE
STARLINK-1017 3.2 01:42:30 10° SSW 01:45:16 47° SSE 01:45:16 47° SSE
CZ-2D R/B 4.3 01:42:43 10° S 01:46:28 48° W 01:50:16 10° NNW
STARLINK-1028 3.2 01:43:57 10° SSW 01:46:41 48° SSE 01:46:41 48° SSE
STARLINK-74 3.4 01:42:59 10° SW 01:47:00 82° SE 01:48:24 39° NE
STARLINK-1048 3.2 01:44:42 10° SSW 01:47:27 49° SSE 01:47:27 49° SSE
STARLINK-1021 3.2 01:44:44 10° SSW 01:47:27 48° SSE 01:47:27 48° SSE
STARLINK-1049 3.2 01:45:28 10° SSW 01:48:11 49° SSE 01:48:11 49° SSE
STARLINK-1019 3.2 01:45:35 10° SW 01:48:16 49° SSE 01:48:16 49° SSE
Cosmos 1939 Rocket 4.0 01:44:41 10° S 01:48:38 46° W 01:52:38 10° NNW
STARLINK-39 3.4 01:44:38 10° SW 01:48:39 85° SE 01:50:00 41° NE
USA 267 3.4 01:45:17 23° ENE 01:49:13 50° SE 01:55:31 10° SSW
STARLINK-1051 3.2 01:46:15 10° SW 01:48:57 50° SSE 01:48:57 50° SSE
STARLINK-1012 3.2 01:46:26 10° SW 01:49:06 49° SSE 01:49:06 49° SSE
STARLINK-31 3.4 01:46:17 10° SW 01:50:18 88° SE 01:51:35 42° NE
STARLINK-1026 3.2 01:48:05 10° SW 01:50:43 51° S 01:50:43 51° S
deb Kosmos-1763 3.9 01:47:45 10° NNW 01:51:26 85° ENE 01:53:17 28° SSE
STARLINK-1013 3.2 01:48:59 10° SW 01:51:35 51° S 01:51:35 51° S
STARLINK-69 3.5 01:48:06 10° SW 01:52:07 82° NW 01:53:27 41° NE
STARLINK-1009 3.2 01:49:49 10° SW 01:52:25 51° S 01:52:25 51° S
Abrixas rocket 1.9 01:50:23 10° WNW 01:53:09 76° NW 01:53:09 76° NW
STARLINK-21 3.5 01:49:36 10° SW 01:53:38 86° NW 01:54:48 45° NE
STARLINK-1015 3.2 01:50:37 10° SW 01:53:16 53° S 01:53:16 53° S
STARLINK-45 3.6 01:51:30 10° SW 01:55:30 75° NW 01:56:43 43° NE
Cosmos 1725 Rocket 4.4 01:50:24 10° SSW 01:56:29 63° W 02:02:38 10° N
STARLINK-70 3.6 01:53:03 10° SW 01:57:04 76° NW 01:58:10 46° NE
STARLINK-76 3.5 01:54:36 10° SW 01:58:37 78° NW 01:59:36 49° NE
Cosmos 1607 3.9 01:53:26 10° NNW 01:59:46 75° ENE 02:03:39 25° SE
STARLINK 1040 3.6 01:57:20 10° SW 01:59:21 43° SW 01:59:21 43° SW
STARLINK-23 3.6 01:56:16 10° SW 02:00:16 75° NW 02:01:12 51° NNE
MOS 1 4.2 01:55:06 10° SSE 02:00:40 61° ENE 02:06:14 10° N
Lacrosse 5 rocket 4.1 01:58:49 10° NW 02:00:58 13° NNW 02:03:10 10° N
Cosmos 1812 2.6 01:57:47 10° N 02:01:40 86° W 02:05:05 13° S
STARLINK-32 3.6 01:57:55 10° WSW 02:01:56 73° NW 02:02:47 52° NNE
SPOT 3 Rocket 4.4 02:03:33 32° NE 02:03:33 32° NE 02:07:13 10° N
STARLINK-40 3.7 01:59:33 10° WSW 02:03:33 71° NW 02:04:20 53° NNE
STARLINK-75 4.3 02:01:45 10° WSW 02:05:01 38° NNW 02:05:34 35° N
STARLINK-44 3.7 02:01:13 10° WSW 02:05:14 68° NW 02:05:57 54° NNE
Cosmos 2285 Rocket 4.4 02:00:40 10° N 02:06:38 40° ENE 02:07:07 40° ENE
STARLINK-37 3.8 02:03:02 10° WSW 02:07:01 63° NW 02:07:44 51° NNE
SJ-11-01 4.2 02:03:00 10° SSE 02:07:40 88° WSW 02:12:23 10° NNW
STARLINK-36 3.8 02:04:32 10° WSW 02:08:31 64° NW 02:09:07 55° N
STARLINK-22 4.0 02:05:46 10° WSW 02:09:06 43° NW 02:09:19 43° NNW
Tsikada Rocket 4.4 02:03:42 10° NNW 02:09:59 65° W 02:16:18 10° S
STARLINK-68 4.0 02:06:26 10° WSW 02:10:23 57° NW 02:11:01 50° N
STARLINK-41 4.2 02:07:14 10° WSW 02:10:31 39° NNW 02:10:44 39° NNW
STARLINK-63 3.9 02:08:00 10° WSW 02:11:58 57° NW 02:12:29 52° N
Cosmos 1943 Rocket 2.2 02:06:24 10° SSW 02:12:00 82° WNW 02:17:02 13° NNE
NOSS 2-3 (E) 4.4 02:07:59 10° SSW 02:10:44 36° SSE 02:10:44 36° SSE
STARLINK-35 3.9 02:09:33 10° WSW 02:13:31 58° NW 02:13:55 55° N
STARLINK-51 3.9 02:11:14 10° WSW 02:15:12 56° NW 02:15:31 54° NNW
STARLINK-30 4.0 02:12:53 10° WSW 02:16:50 55° NW 02:17:05 53° NNW
STARLINK-58 4.3 02:13:31 10° WSW 02:16:50 41° NW 02:16:50 41° NW
STARLINK-72 4.1 02:14:34 10° WSW 02:18:30 53° NW 02:18:42 52° NNW
STARLINK-62 4.4 02:15:15 10° WSW 02:18:30 39° NW 02:18:30 39° NW
STARLINK-50 4.1 02:16:13 10° WSW 02:20:09 51° NW 02:20:17 51° NNW
STARLINK-34 4.5 02:17:17 10° WSW 02:20:25 37° NW 02:20:25 37° NW
STARLINK-59 4.2 02:18:00 10° WSW 02:21:54 48° NW 02:22:00 48° NNW
Cosmos 921 Rocket 3.8 02:17:57 10° SSW 02:22:20 53° WNW 02:26:13 13° N
USA 234 4.2 02:21:21 29° NE 02:22:23 31° NNE 02:27:58 10° NW
STARLINK-56 4.3 02:19:33 10° WSW 02:23:27 48° NW 02:23:27 48° NW
STARLINK-73 4.3 02:21:13 10° WSW 02:25:01 47° NW 02:25:01 47° NW
STARLINK-38 4.4 02:22:54 10° WSW 02:26:39 45° NW 02:26:39 45° NW
USA 229 DEB 4.1 02:21:34 10° SW 02:27:59 59° NW 02:33:19 17° NNE
USA 229 4.0 02:21:41 10° SW 02:28:06 60° NW 02:33:22 17° NNE
STARLINK-65 4.5 02:24:34 10° WSW 02:28:14 44° NW 02:28:14 44° NW
NOSS 3-1 (A) 3.2 02:29:39 10° SW 02:35:03 78° NW 02:36:36 51° NNE
BREEZE-M DEB (TANK) 4.4 02:30:03 10° WNW 02:35:19 30° SW 02:35:37 30° SW
Cosmos 2369 Rocket 2.4 02:30:20 10° SSW 02:35:56 68° WNW 02:39:01 28° N
Lacrosse 4 Rocket 4.3 02:38:37 10° W 02:40:54 14° NW 02:43:13 10° NNW
Cosmos 2263 4.3 02:41:58 10° SSW 02:47:44 76° WNW 02:48:05 73° NNW
BREEZE-M DEB (TANK) 4.3 02:48:04 10° NW 02:50:34 53° NNW 02:50:34 53° NNW
CZ-2C R/B 3.7 02:54:25 43° SSW 02:56:05 60° W 03:01:51 10° NNW
SL-4 R/B 3.9 02:54:40 10° WNW 02:57:28 32° W 02:57:28 32° W
H-2A R/B 3.2 02:59:43 28° SSW 03:01:55 41° W 03:07:00 10° NNW
USA 267 3.9 03:32:39 49° NW 03:32:39 49° NW 03:38:24 10° WSW
USA 267 4.4 10:13:21 10° SE 10:16:43 34° SE 10:16:43 34° SE
Lacrosse 5 4.0 10:24:31 21° NE 10:24:31 21° NE 10:27:51 10° ENE
Cosmos 2237 Rocket 4.4 10:36:01 15° N 10:36:01 15° N 10:37:07 10° N
CZ-2C R/B 3.7 10:33:22 10° NNE 10:36:51 38° NE 10:36:51 38° NE
GEOS 3 Rocket 4.4 10:37:01 10° NE 10:41:55 50° ESE 10:41:55 50° ESE
BREEZE-M DEB (TANK) 4.3 10:50:10 32° NNE 10:50:42 32° NNE 10:59:31 10° E
Cosmos 2221 4.4 10:55:19 10° SSE 10:58:59 29° E 11:02:43 10° NNE
CZ-4C R/B 4.1 11:02:53 18° NNW 11:02:53 18° NNW 11:05:34 10° NNE
Cosmos 1943 Rocket 3.4 10:59:46 10° N 11:04:56 39° ENE 11:10:04 10° SE
NOSS 3-1 (C) 4.0 11:03:56 58° W 11:05:09 64° WSW 11:13:46 10° SSE
Cosmos 2297 4.0 11:14:19 51° SSW 11:14:19 51° SSW 11:18:36 10° S
SL-16 R/B 2.9 11:15:59 38° NNW 11:15:59 38° NNW 11:20:01 10° NNE
STARLINK-1063 4.5 11:27:40 40° SSE 11:27:40 40° SSE 11:30:31 10° SE
Cosmos 1484 Rocket 3.1 11:26:07 10° NNE 11:30:03 67° E 11:32:38 21° S
Cosmos 2369 Rocket 3.0 11:24:54 10° NNW 11:30:29 51° ENE 11:36:01 10° SE
Cosmos 1603 4.0 11:25:17 11° SSW 11:30:48 69° ESE 11:36:28 10° NNE
STARLINK-1064 4.4 11:32:23 41° S 11:32:23 41° S 11:35:22 10° SSE
STARLINK-1041 4.3 11:37:13 40° S 11:37:13 40° S 11:40:20 10° SSE
Cosmos 1943 3.7 11:31:09 10° S 11:36:38 58° ESE 11:42:09 10° NNE
Cosmos 1605 Rocket 3.9 11:32:34 10° NNW 11:38:42 61° W 11:44:41 10° S
SKYMED 2 4.2 11:35:02 10° SSE 11:39:15 55° ENE 11:43:30 10° N
Cosmos 1992 Rocket 4.1 11:40:47 47° W 11:40:57 47° WSW 11:45:56 10° S
STARLINK-1070 3.7 11:41:54 45° ENE 11:41:54 45° ENE 11:44:05 10° NE
STARLINK-1038 4.3 11:42:03 39° SSW 11:42:03 39° SSW 11:45:17 10° SSE
STARLINK-1124 3.8 11:42:49 40° NE 11:42:49 40° NE 11:44:50 10° NE
STARLINK-1066 3.6 11:42:55 47° ENE 11:42:55 47° ENE 11:45:08 10° NE
STARLINK-1081 3.6 11:43:10 47° ENE 11:43:10 47° ENE 11:45:23 10° NE
STARLINK-1069 3.5 11:43:35 48° ENE 11:43:35 48° ENE 11:45:49 10° NE
STARLINK-1085 3.5 11:43:49 49° ENE 11:43:49 49° ENE 11:46:04 10° NE
STARLINK-1086 3.5 11:44:02 49° ENE 11:44:02 49° ENE 11:46:17 10° NE
STARLINK-1095 3.5 11:44:14 50° ENE 11:44:14 50° ENE 11:46:31 10° NE
STARLINK-1077 3.5 11:44:27 50° ENE 11:44:27 50° ENE 11:46:44 10° NE
STARLINK-1075 3.5 11:44:40 50° ENE 11:44:40 50° ENE 11:46:57 10° NE
STARLINK-1093 3.4 11:44:53 51° NE 11:44:53 51° NE 11:47:10 10° NE
STARLINK-1103 4.4 11:42:36 28° SSW 11:44:18 48° SE 11:48:11 10° ENE
STARLINK-1074 3.4 11:45:05 51° NE 11:45:05 51° NE 11:47:23 10° NE
STARLINK-1087 3.4 11:45:20 52° NE 11:45:20 52° NE 11:47:38 10° NE
STARLINK-1088 3.4 11:45:33 51° NE 11:45:33 51° NE 11:47:51 10° NE
STARLINK-1115 3.4 11:45:46 52° NE 11:45:46 52° NE 11:48:05 10° NE
STARLINK-1076 3.3 11:45:58 53° NE 11:45:58 53° NE 11:48:18 10° NE
STARLINK-1092 3.3 11:46:10 53° NE 11:46:10 53° NE 11:48:30 10° NE
PSLV R/B 4.0 11:42:01 10° NNE 11:45:44 65° ESE 11:49:30 10° S
CZ-4B R/B 3.2 11:42:10 10° N 11:44:51 43° NNW 11:44:51 43° NNW
STARLINK-1080 3.3 11:46:24 53° NE 11:46:24 53° NE 11:48:45 10° NE
ATLAS CENTAUR R/B 3.5 11:47:19 16° NNW 11:47:19 16° NNW 11:49:03 10° N
STARLINK-1090 3.3 11:46:37 54° NE 11:46:37 54° NE 11:48:59 10° NE
STARLINK-1089 3.3 11:46:50 54° NE 11:46:50 54° NE 11:49:12 10° NE
STARLINK-1046 4.3 11:46:50 37° SSW 11:46:50 37° SSW 11:50:10 10° SSE
STARLINK-1107 3.3 11:47:03 54° NE 11:47:03 54° NE 11:49:25 10° NE
STARLINK-1109 3.2 11:47:13 55° NE 11:47:13 55° NE 11:49:37 10° NE
STARLINK-1091 3.2 11:47:29 56° NE 11:47:29 56° NE 11:49:53 10° NE
STARLINK-1072 3.2 11:47:42 56° NE 11:47:42 56° NE 11:50:07 10° NE
STARLINK-1096 3.2 11:47:57 56° NE 11:47:57 56° NE 11:50:20 10° NE
STARLINK-1079 3.2 11:48:08 57° NE 11:48:08 57° NE 11:50:34 10° NE
STARLINK-1116 3.1 11:48:21 58° NE 11:48:21 58° NE 11:50:47 10° NE
STARLINK-1094 3.1 11:48:47 58° NE 11:48:47 58° NE 11:51:14 10° NE
STARLINK-1128 4.1 11:46:40 29° SSW 11:48:22 53° SE 11:52:15 10° ENE
STARLINK-1117 3.1 11:48:59 59° NE 11:48:59 59° NE 11:51:26 10° NE
Meteor 2-3 Rocket 3.6 11:42:59 10° NNW 11:48:44 72° W 11:54:29 10° S
STARLINK-1078 3.1 11:49:13 59° NE 11:49:13 59° NE 11:51:41 10° NE
Cosmos 1500 Rocket 3.5 11:44:19 10° N 11:48:46 87° E 11:53:10 10° S
Shenzhou-11 Module 2.7 11:49:24 44° ESE 11:49:24 44° ESE 11:51:30 10° ENE
STARLINK-1108 3.1 11:49:24 59° NE 11:49:24 59° NE 11:51:52 10° NE
STARLINK-1101 4.2 11:47:05 27° SSW 11:48:57 53° SE 11:52:53 10° ENE
STARLINK-1071 3.1 11:49:40 59° NE 11:49:40 59° NE 11:52:07 10° NE
STARLINK-1110 3.0 11:49:51 60° NE 11:49:51 60° NE 11:52:20 10° NE
STARLINK-1122 3.0 11:50:17 61° NE 11:50:17 61° NE 11:52:48 10° NE
STARLINK-1126 3.0 11:50:30 61° NE 11:50:30 61° NE 11:53:01 10° NE
STARLINK-1082 3.0 11:50:44 62° NE 11:50:44 62° NE 11:53:15 10° NE
STARLINK-1100 3.0 11:50:55 62° NNE 11:50:55 62° NNE 11:53:27 10° NE
STARLINK-1083 2.9 11:51:10 62° NNE 11:51:10 62° NNE 11:53:42 10° NE
STARLINK-1125 2.9 11:51:23 63° NNE 11:51:23 63° NNE 11:53:57 10° NE
STARLINK-1039 4.4 11:51:37 34° SW 11:51:37 34° SW 11:55:03 10° SSE
Cosmos 1153 Rocket 4.3 11:46:28 10° N 11:52:36 74° W 11:58:41 10° S
STARLINK-1113 3.9 11:51:07 28° SSW 11:53:01 59° SE 11:56:56 10° ENE
STARLINK-1102 4.0 11:51:34 26° SSW 11:53:36 58° SE 11:57:34 10° ENE
STARLINK-1045 4.5 11:56:20 31° SW 11:56:20 31° SW 11:59:49 10° SSE
